{"data":{"norad_id":51991,"intl_designator":"2022-025AM","name":"STARLINK-3652","alt_names":[],"object_type":"PAYLOAD","status":"ACTIVE","operator":null,"country":"US","launch_date":"2022-03-09","launch_site_code":"AFETR","launch_vehicle":null,"mission":null,"orbit_class":"UNKNOWN","rcs_meters":null,"size_class":null,"mass_kg":null,"dimensions":null,"purposes":["comms"],"wikipedia_slug":null,"has_3d_model":false,"image_url":null,"decayed_at":null,"tle_current":{"epoch":"2026-09-19T22:16:56.445312Z","epoch_age_seconds":105638,"freshness":"FRESH","line1":"1 51991U 22025AM  26262.92843108  .00000246  00000+0  18430-4 0  9990","line2":"2 51991  53.1590 230.4503 0001288  86.9560 273.1590 15.34388082250613","mean_motion":15.34388082,"eccentricity":0.0001288,"inclination_deg":53.159,"raan_deg":230.4503,"arg_perigee_deg":86.956,"mean_anomaly_deg":273.159,"bstar":1.843e-5,"rev_number":25061,"period_min":93.848487021812,"perigee_km":461.85755845857,"apogee_km":463.61976802942,"semimajor_km":6840.875663244,"source":"CELESTRAK","updated_at":"2026-09-20T09:00:39.981388Z"}}}